Weather History for Ely, MN

Change the Weather History Date:

Thursday, April 24, 2014

  Actual Average Record
Temperature  
Mean Temperature 36 °F -  
Max Temperature 39 °F 53 °F 64 °F (1999)
Min Temperature 32 °F 27 °F 14 °F (2013)
Degree Days  
Heating Degree Days 30    
Moisture  
Dew Point 32 °F    
Average Humidity 88    
Maximum Humidity 100    
Minimum Humidity 49    
Precipitation  
Precipitation 0.15 in - - ()
Sea Level Pressure  
Sea Level Pressure 29.87 in    
Wind  
Wind Speed 8 mph (ESE)    
Max Wind Speed 18 mph    
Max Gust Speed 26 mph    
Visibility 7 miles    
Events Rain , Snow    
Averages and records for this station are not official NWS values.
T = Trace of Precipitation, MM = Missing Value Source: NWS Daily Summary

Daily Weather History Graph

Daily Weather History Graph

Search for Another Location

Airport:

Trip Planner

Search our weather history database for the weather conditions in past years. The results will help you decide how hot, cold, wet, or windy it might be!

Date:

Astronomy

Apr. 24, 2014 Rise Set
Actual Time 6:01 AM CDT 8:10 PM CDT
Civil Twilight 5:27 AM CDT 8:43 PM CDT
Nautical Twilight 4:46 AM CDT 9:25 PM CDT
Astronomical Twilight 3:59 AM CDT 10:12 PM CDT
Moon 3:35 AM CDT (4/24) 3:05 PM CDT (4/24)
Length of Visible Light 15h 15m
Length of Day
14h 08m
Waning Crescent, 24% of the Moon is Illuminated
Apr 24
Waning Crescent
Apr 29
New
May 6
First Quarter
May 14
Full
May 21
Last Quarter

Hourly Weather History & Observations

Time (CDT) Temp. Windchill Dew Point Humidity Pressure Visibility Wind Dir Wind Speed Gust Speed Precip Events Conditions
12:12 AM 37.4 °F - 21.2 °F 52% 30.02 in 10.0 mi Calm Calm - N/A   Overcast
12:33 AM 39.2 °F 34.2 °F 21.2 °F 49% 30.02 in 10.0 mi South 6.9 mph - N/A   Overcast
12:52 AM 39.2 °F 35.9 °F 21.2 °F 49% 30.02 in 10.0 mi South 4.6 mph - N/A   Mostly Cloudy
1:13 AM 37.4 °F 31.4 °F 26.6 °F 65% 30.03 in 7.0 mi South 8.1 mph - N/A   Scattered Clouds
1:33 AM 35.6 °F 32.8 °F 30.2 °F 81% 30.02 in 5.0 mi South 3.5 mph - N/A Rain Rain
1:52 AM 35.6 °F - 30.2 °F 81% 30.02 in 5.0 mi Calm Calm - 0.01 in Rain Rain
2:13 AM 35.6 °F 30.7 °F 33.8 °F 93% 30.01 in 4.0 mi East 5.8 mph - 0.02 in Rain Light Rain
2:33 AM 35.6 °F 32.8 °F 33.8 °F 93% 30.01 in 10.0 mi ESE 3.5 mph - 0.03 in Rain Rain
2:52 AM 35.6 °F 32.8 °F 33.8 °F 93% 30.01 in 10.0 mi SE 3.5 mph - 0.03 in Rain Rain
3:13 AM 35.6 °F 32.8 °F 33.8 °F 93% 30.01 in 10.0 mi SE 3.5 mph - N/A   Drizzle
3:33 AM 35.6 °F 32.8 °F 33.8 °F 93% 30.01 in 10.0 mi ESE 3.5 mph - N/A Rain Rain
3:52 AM 35.6 °F 32.8 °F 33.8 °F 93% 30.00 in 10.0 mi ESE 3.5 mph - N/A Rain Light Rain
4:13 AM 35.6 °F 32.8 °F 33.8 °F 93% 29.99 in 10.0 mi East 3.5 mph - N/A Rain Light Rain
4:32 AM 35.6 °F 32.8 °F 33.8 °F 93% 29.99 in 10.0 mi ESE 3.5 mph - N/A Rain Light Rain
4:53 AM 35.6 °F 32.8 °F 33.8 °F 93% 29.99 in 10.0 mi ESE 3.5 mph - N/A   Drizzle
5:13 AM 35.6 °F 31.7 °F 33.8 °F 93% 29.97 in 10.0 mi ESE 4.6 mph - N/A   Drizzle
5:32 AM 35.6 °F 30.7 °F 33.8 °F 93% 29.96 in 10.0 mi ESE 5.8 mph - N/A   Overcast
5:53 AM 35.6 °F 30.7 °F 35.6 °F 100% 29.96 in 10.0 mi ESE 5.8 mph - N/A   Overcast
6:13 AM 35.6 °F 28.0 °F 35.6 °F 100% 29.95 in 7.0 mi ESE 10.4 mph - N/A   Overcast
6:33 AM 35.6 °F 28.0 °F 35.6 °F 100% 29.95 in 7.0 mi SE 10.4 mph 16.1 mph N/A   Overcast
6:53 AM 35.6 °F 27.5 °F 33.8 °F 93% 29.95 in 10.0 mi SE 11.5 mph - N/A   Overcast
7:13 AM 35.6 °F 28.6 °F 33.8 °F 93% 29.95 in 10.0 mi SE 9.2 mph - N/A   Overcast
7:33 AM 35.6 °F 28.0 °F 33.8 °F 93% 29.95 in 10.0 mi SE 10.4 mph - N/A   Overcast
7:53 AM 37.4 °F 29.8 °F 35.6 °F 93% 29.95 in 10.0 mi SE 11.5 mph 17.3 mph N/A   Overcast
8:13 AM 37.4 °F 29.3 °F 33.8 °F 87% 29.94 in 10.0 mi SE 12.7 mph 18.4 mph N/A   Overcast
8:33 AM 37.4 °F 29.3 °F 33.8 °F 87% 29.94 in 10.0 mi SE 12.7 mph - N/A   Overcast
8:53 AM 37.4 °F 29.3 °F 33.8 °F 87% 29.93 in 10.0 mi SE 12.7 mph 19.6 mph N/A   Overcast
9:13 AM 37.4 °F 29.3 °F 33.8 °F 87% 29.92 in 10.0 mi SE 12.7 mph 17.3 mph N/A   Overcast
9:32 AM 37.4 °F 28.9 °F 33.8 °F 87% 29.92 in 10.0 mi SE 13.8 mph 19.6 mph N/A   Overcast
9:53 AM 37.4 °F 30.3 °F 33.8 °F 87% 29.92 in 10.0 mi SE 10.4 mph - N/A   Overcast
10:13 AM 37.4 °F 28.2 °F 33.8 °F 87% 29.92 in 10.0 mi SE 16.1 mph 19.6 mph N/A   Overcast
10:32 AM 37.4 °F 29.3 °F 33.8 °F 87% 29.91 in 10.0 mi SE 12.7 mph 21.9 mph N/A   Overcast
10:53 AM 37.4 °F 28.2 °F 33.8 °F 87% 29.91 in 10.0 mi SE 16.1 mph 23.0 mph N/A   Mostly Cloudy
11:13 AM 37.4 °F 28.2 °F 33.8 °F 87% 29.91 in 10.0 mi SE 16.1 mph 21.9 mph N/A   Overcast
11:32 AM 37.4 °F 29.3 °F 33.8 °F 87% 29.91 in 10.0 mi ESE 12.7 mph 24.2 mph N/A   Mostly Cloudy
11:53 AM 37.4 °F 28.5 °F 32.0 °F 81% 29.90 in 10.0 mi ESE 15.0 mph 26.5 mph N/A   Overcast
12:12 PM 37.4 °F 28.5 °F 33.8 °F 87% 29.89 in 7.0 mi ESE 15.0 mph 24.2 mph N/A   Overcast
12:33 PM 35.6 °F 25.5 °F 33.8 °F 93% 29.88 in 10.0 mi ESE 17.3 mph 24.2 mph N/A Rain Light Rain
12:53 PM 35.6 °F 25.5 °F 33.8 °F 93% 29.87 in 10.0 mi ESE 17.3 mph 24.2 mph N/A Snow Light Snow
1:12 PM 35.6 °F 25.9 °F 33.8 °F 93% 29.87 in 10.0 mi ESE 16.1 mph 21.9 mph N/A Snow Light Snow
1:33 PM 35.6 °F 27.1 °F 33.8 °F 93% 29.86 in 7.0 mi ESE 12.7 mph 19.6 mph N/A Snow Light Snow
1:52 PM 35.6 °F 26.6 °F 33.8 °F 93% 29.85 in 10.0 mi ESE 13.8 mph 18.4 mph 0.01 in Snow Light Snow
2:13 PM 35.6 °F 26.2 °F 33.8 °F 93% 29.84 in 3.0 mi East 15.0 mph 19.6 mph N/A Snow Light Snow
2:33 PM 33.8 °F 22.8 °F 32.0 °F 93% 29.83 in 2.5 mi ESE 18.4 mph 23.0 mph 0.01 in Snow Light Snow
2:53 PM 33.8 °F 24.3 °F 32.0 °F 93% 29.83 in 1.8 mi East 13.8 mph 18.4 mph 0.01 in Snow Light Snow
3:13 PM 33.8 °F 25.3 °F 32.0 °F 93% 29.82 in 1.5 mi East 11.5 mph - N/A Snow Light Snow
3:33 PM 33.8 °F 24.3 °F 32.0 °F 93% 29.81 in 1.5 mi East 13.8 mph 19.6 mph 0.01 in Snow Light Snow
3:52 PM 33.8 °F 25.8 °F 32.0 °F 93% 29.80 in 1.8 mi ESE 10.4 mph - 0.01 in Snow Light Snow
4:13 PM 33.8 °F 24.8 °F 32.0 °F 93% 29.80 in 1.0 mi ESE 12.7 mph 18.4 mph 0.01 in Snow Light Snow
4:33 PM 33.8 °F 25.8 °F 30.2 °F 87% 29.79 in 1.0 mi East 10.4 mph 16.1 mph 0.02 in Snow Light Snow
4:52 PM 33.8 °F 25.8 °F 30.2 °F 87% 29.78 in 1.0 mi East 10.4 mph - 0.03 in Snow Light Snow
5:13 PM 33.8 °F 26.4 °F 32.0 °F 93% 29.78 in 0.8 mi East 9.2 mph 16.1 mph 0.01 in Snow Light Snow
5:32 PM 33.8 °F 27.7 °F 30.2 °F 87% 29.78 in 2.0 mi East 6.9 mph - 0.01 in Snow Light Snow
5:53 PM 33.8 °F 26.4 °F 30.2 °F 87% 29.76 in 1.2 mi East 9.2 mph - 0.01 in Snow Light Snow
6:13 PM 33.8 °F 25.3 °F 32.0 °F 93% 29.76 in 2.5 mi East 11.5 mph 16.1 mph 0.01 in Snow Light Snow
6:32 PM 33.8 °F 26.4 °F 30.2 °F 87% 29.75 in 4.0 mi East 9.2 mph - 0.01 in Snow Light Snow
6:53 PM 33.8 °F 26.4 °F 30.2 °F 87% 29.75 in 4.0 mi East 9.2 mph 17.3 mph 0.01 in Snow Light Snow
7:13 PM 33.8 °F 23.9 °F 30.2 °F 87% 29.74 in 1.8 mi East 15.0 mph 18.4 mph N/A Snow Light Snow
7:32 PM 33.8 °F 24.8 °F 30.2 °F 87% 29.74 in 10.0 mi ESE 12.7 mph 18.4 mph N/A Snow Light Snow
7:53 PM 33.8 °F 24.8 °F 30.2 °F 87% 29.73 in 7.0 mi East 12.7 mph - N/A Snow Light Snow
8:13 PM 33.8 °F 24.8 °F 30.2 °F 87% 29.73 in 10.0 mi ESE 12.7 mph 17.3 mph N/A   Overcast
8:32 PM 33.8 °F 25.8 °F 30.2 °F 87% 29.72 in 10.0 mi East 10.4 mph 17.3 mph N/A   Overcast
8:53 PM 33.8 °F 25.3 °F 30.2 °F 87% 29.72 in 10.0 mi East 11.5 mph 18.4 mph N/A Snow Light Snow
9:13 PM 33.8 °F 26.4 °F 30.2 °F 87% 29.72 in 3.0 mi East 9.2 mph 18.4 mph N/A Snow Light Snow
9:33 PM 33.8 °F 23.9 °F 30.2 °F 87% 29.71 in 2.0 mi ESE 15.0 mph 19.6 mph 0.01 in Snow Light Snow
9:52 PM 32.0 °F 24.2 °F 30.2 °F 93% 29.71 in 1.5 mi ESE 9.2 mph - 0.01 in Snow Light Snow
10:13 PM 32.0 °F 23.6 °F 30.2 °F 93% 29.70 in 2.0 mi East 10.4 mph 20.7 mph 0.01 in Snow Light Snow
10:33 PM 32.0 °F 22.5 °F 30.2 °F 93% 29.69 in 3.0 mi ESE 12.7 mph 20.7 mph 0.01 in Snow Light Snow
10:52 PM 33.8 °F 26.4 °F 30.2 °F 87% 29.69 in 2.5 mi East 9.2 mph - 0.01 in Snow Light Snow
11:13 PM 32.0 °F 23.6 °F 30.2 °F 93% 29.68 in 1.8 mi East 10.4 mph 17.3 mph 0.01 in Snow Light Snow
11:33 PM 32.0 °F 22.5 °F 30.2 °F 93% 29.67 in 2.5 mi East 12.7 mph 18.4 mph 0.01 in Snow Light Snow
11:52 PM 32.0 °F 23.0 °F 30.2 °F 93% 29.66 in 3.0 mi East 11.5 mph 16.1 mph 0.01 in Snow Light Snow